Merced, CA

7:49 PM PDT on August 23, 2016 (GMT -0700)
Merced Municipal-Macready

Weather History for KMCE - December, 2012

Change the Weather History Date:

Saturday, December 1, 2012

  Actual Average Record
Temperature  
Mean Temperature 59 °F 47 °F  
Max Temperature 62 °F 57 °F 71 °F (2014)
Min Temperature 56 °F 37 °F 27 °F (2007)
Degree Days  
Heating Degree Days 6    
Month to date heating degree days 6  
Since 1 July heating degree days 329  
Cooling Degree Days 0    
Month to date cooling degree days 0  
Year to date cooling degree days 1966  
Growing Degree Days 10 (Base 50)    
Moisture  
Dew Point 56 °F    
Average Humidity 87    
Maximum Humidity 93    
Minimum Humidity 80    
Precipitation  
Precipitation 0.26 in 0.02 in 0.37 in (2005)
Month to date precipitation 0.26 0.02  
Year to date precipitation 7.64 11.00  
Since 1 July precipitation 2.13  
Snow  
Snow 0.00 in - - ()
Month to date snowfall 0.0  
Since 1 July snowfall 0.0  
Snow Depth 0.00 in    
Sea Level Pressure  
Sea Level Pressure 30.04 in    
Wind  
Wind Speed 12 mph (SE)    
Max Wind Speed 18 mph    
Max Gust Speed 23 mph    
Visibility 7 miles    
Events Rain    
T = Trace of Precipitation, MM = Missing Value Source: NWS Daily Summary

Daily Weather History Graph

Daily Weather History Graph

Search for Another Location

Airport or City:

Trip Planner

Search our weather history database for the weather conditions in past years. The results will help you decide how hot, cold, wet, or windy it might be!

Date:

Astronomy

Dec. 01, 2012 Rise Set
Actual Time 6:57 AM PST 4:44 PM PST
Civil Twilight 6:29 AM PST 5:13 PM PST
Nautical Twilight 5:56 AM PST 5:45 PM PST
Astronomical Twilight 5:25 AM PST 6:17 PM PST
Moon 7:38 PM PST (12/1) 9:14 AM PST (12/1)
Length of Visible Light 10h 44m
Length of Day
9h 46m
Waning Gibbous, 91% of the Moon is Illuminated
Dec 1
Waning Gibbous
Dec 6
Last Quarter
Dec 13
New
Dec 19
First Quarter
Dec 28
Full

Hourly Weather History & Observations

Time (PST) Temp. Dew Point Humidity Pressure Visibility Wind Dir Wind Speed Gust Speed Precip Events Conditions
12:53 AM 57.0 °F 54.0 °F 89% 30.06 in 10.0 mi SE 12.7 mph - N/A   Clear
1:53 AM 57.0 °F 54.0 °F 89% 30.06 in 10.0 mi SE 11.5 mph - N/A   Clear
2:53 AM 57.0 °F 54.0 °F 89% 30.08 in 10.0 mi SE 12.7 mph - N/A   Overcast
4:53 AM 59.0 °F 54.0 °F 83% 30.06 in 10.0 mi ESE 16.1 mph - N/A   Overcast
6:53 AM 59.0 °F 53.1 °F 81% 30.07 in 10.0 mi SE 15.0 mph - N/A   Scattered Clouds
7:53 AM 59.0 °F 54.0 °F 83% 30.07 in 10.0 mi SE 12.7 mph - N/A   Partly Cloudy
8:53 AM 60.1 °F 55.0 °F 83% 30.06 in 10.0 mi SE 13.8 mph - N/A   Mostly Cloudy
9:53 AM 60.1 °F 55.0 °F 83% 30.07 in 10.0 mi SE 15.0 mph - 0.00 in   Mostly Cloudy
10:37 AM 60.8 °F 55.4 °F 82% 30.09 in 1.8 mi SE 11.5 mph - 0.06 in Rain Rain
11:22 AM 60.8 °F 57.2 °F 88% 30.08 in 0.8 mi SE 12.7 mph - 0.07 in Rain Rain
11:29 AM 60.8 °F 57.2 °F 88% 30.08 in 1.5 mi SE 12.7 mph - 0.08 in Rain Light Rain
11:43 AM 60.8 °F 57.2 °F 88% 30.07 in 2.5 mi SE 11.5 mph - 0.08 in Rain Light Rain
11:53 AM 61.0 °F 57.9 °F 90% 30.07 in 5.0 mi ESE 11.5 mph - 0.08 in   Overcast
12:03 PM 60.8 °F 57.2 °F 88% 30.06 in 9.0 mi SE 13.8 mph - N/A   Overcast
12:53 PM 62.1 °F 57.9 °F 86% 30.05 in 10.0 mi SE 12.7 mph - N/A   Overcast
1:13 PM 62.6 °F 57.2 °F 82% 30.04 in 10.0 mi ESE 13.8 mph - N/A   Overcast
1:53 PM 61.0 °F 57.9 °F 90% 30.04 in 10.0 mi ESE 10.4 mph - 0.00 in   Overcast
2:53 PM 61.0 °F 57.9 °F 90% 30.03 in 2.5 mi ESE 13.8 mph - 0.00 in Rain Light Rain
3:00 PM 60.8 °F 57.2 °F 88% 30.03 in 6.0 mi ESE 12.7 mph - 0.00 in Rain Light Rain
3:18 PM 60.8 °F 57.2 °F 88% 30.03 in 2.0 mi ESE 9.2 mph - 0.01 in Rain Light Rain
3:22 PM 60.8 °F 57.2 °F 88% 30.03 in 3.0 mi ESE 10.4 mph - 0.01 in Rain Light Rain
3:49 PM 60.8 °F 57.2 °F 88% 30.04 in 1.8 mi ESE 6.9 mph - 0.03 in Rain Rain
3:53 PM 61.0 °F 57.9 °F 90% 30.04 in 1.8 mi ESE 6.9 mph - 0.04 in Rain Rain
3:57 PM 60.8 °F 57.2 °F 88% 30.04 in 3.0 mi SE 6.9 mph - 0.00 in Rain Light Rain
4:53 PM 61.0 °F 57.9 °F 90% 30.01 in 10.0 mi SE 9.2 mph - 0.00 in   Mostly Cloudy
5:53 PM 60.1 °F 57.9 °F 93% 30.01 in 10.0 mi East 5.8 mph - 0.00 in   Overcast
6:53 PM 60.1 °F 57.9 °F 93% 30.01 in 10.0 mi ESE 5.8 mph - 0.00 in   Overcast
7:53 PM 60.1 °F 57.0 °F 90% 30.00 in 9.0 mi SE 10.4 mph - 0.00 in   Overcast
8:53 PM 60.1 °F 57.0 °F 90% 30.01 in 10.0 mi ESE 9.2 mph - 0.02 in   Overcast
9:53 PM 61.0 °F 57.0 °F 87% 29.99 in 10.0 mi SE 15.0 mph 21.9 mph 0.01 in   Overcast
10:53 PM 61.0 °F 57.0 °F 87% 29.99 in 9.0 mi SE 17.3 mph - 0.00 in Rain Light Rain
11:53 PM 61.0 °F 55.9 °F 83% 30.00 in 10.0 mi SE 11.5 mph - 0.01 in   Overcast